Marshalltown, IA

1:28 PM CDT on October 21, 2017 (GMT -0500)
Marshalltown Municipal

Weather History for KMIW - October, 2012

Change the Weather History Date:

Tuesday, October 16, 2012

  Actual Average Record
Temperature  
Mean Temperature 61 °F 50 °F  
Max Temperature 74 °F 62 °F 76 °F (2016)
Min Temperature 48 °F 39 °F 24 °F (2002)
Degree Days  
Heating Degree Days 4 15  
Month to date heating degree days 216 200  
Since 1 July heating degree days 394 360  
Cooling Degree Days 0 0  
Month to date cooling degree days 0 10  
Year to date cooling degree days 1074 728  
Growing Degree Days 10 (Base 50)    
Moisture  
Dew Point 48 °F    
Average Humidity 66    
Maximum Humidity 86    
Minimum Humidity 46    
Precipitation  
Precipitation 0.00 in 0.07 in 0.25 in (2006)
Month to date precipitation 1.08 1.14  
Sea Level Pressure  
Sea Level Pressure 29.56 in    
Wind  
Wind Speed 11 mph (South)    
Max Wind Speed 21 mph    
Max Gust Speed 24 mph    
Visibility 10 miles    
Events      
T = Trace of Precipitation, MM = Missing Value Source: NWS Daily Summary

Daily Weather History Graph

Daily Weather History Graph

Search for Another Location

Airport or City:

Trip Planner

Search our weather history database for the weather conditions in past years. The results will help you decide how hot, cold, wet, or windy it might be!

Date:

Astronomy

Oct. 16, 2012 Rise Set
Actual Time 7:25 AM CDT 6:27 PM CDT
Civil Twilight 6:57 AM CDT 6:55 PM CDT
Nautical Twilight 6:25 AM CDT 7:28 PM CDT
Astronomical Twilight 5:52 AM CDT 8:00 PM CDT
Moon 8:51 AM CDT (10/16) 7:09 PM CDT (10/16)
Length of Visible Light 11h 58m
Length of Day
11h 01m
New Moon, 2% of the Moon is Illuminated
Oct 16
New Moon
Oct 21
First Quarter
Oct 29
Full
Nov 6
Last Quarter
Nov 13
New

Hourly Weather History & Observations

Time (CDT) Temp. Dew Point Humidity Pressure Visibility Wind Dir Wind Speed Gust Speed Precip Events Conditions
12:53 AM 48.0 °F 42.1 °F 80% 29.83 in 10.0 mi SSE 5.8 mph - N/A   Unknown
1:53 AM 50.0 °F 42.1 °F 74% 29.81 in 10.0 mi SSE 10.4 mph - N/A   Clear
2:53 AM 50.0 °F 42.1 °F 74% 29.77 in 10.0 mi SSE 12.7 mph - N/A   Clear
3:53 AM 52.0 °F 43.0 °F 71% 29.73 in 10.0 mi SSE 10.4 mph - N/A   Clear
4:53 AM 50.0 °F 43.0 °F 77% 29.70 in 10.0 mi SE 11.5 mph - N/A   Clear
5:53 AM 48.9 °F 43.0 °F 80% 29.68 in 10.0 mi SE 12.7 mph - N/A   Clear
7:53 AM 48.9 °F 44.1 °F 83% 29.64 in 10.0 mi SE 12.7 mph - N/A   Clear
8:53 AM 52.0 °F 45.0 °F 77% 29.61 in 9.0 mi SSE 13.8 mph - N/A   Unknown
9:53 AM 55.9 °F 46.9 °F 72% 29.59 in 10.0 mi SSE 10.4 mph - 0.00 in   Clear
10:53 AM 61.0 °F 50.0 °F 67% 29.56 in 10.0 mi South 12.7 mph - N/A   Clear
11:53 AM 64.0 °F 51.1 °F 63% 29.53 in 10.0 mi South 11.5 mph - N/A   Clear
12:53 PM 68.0 °F 52.0 °F 56% 29.49 in 10.0 mi SSE 12.7 mph 18.4 mph N/A   Clear
1:53 PM 71.1 °F 53.1 °F 53% 29.47 in 10.0 mi SSW 12.7 mph - N/A   Clear
2:53 PM 73.0 °F 53.1 °F 49% 29.44 in 10.0 mi WSW 13.8 mph - N/A   Clear
3:53 PM 73.9 °F 52.0 °F 46% 29.42 in 10.0 mi SW 12.7 mph 24.2 mph N/A   Clear
4:53 PM 73.0 °F 52.0 °F 48% 29.41 in 10.0 mi WSW 15.0 mph - N/A   Clear
6:53 PM 61.0 °F 51.1 °F 70% 29.43 in 10.0 mi WSW 6.9 mph - N/A   Clear
7:53 PM 61.0 °F 51.1 °F 70% 29.43 in 10.0 mi SW 6.9 mph - N/A   Clear
8:53 PM 59.0 °F 50.0 °F 72% 29.43 in 10.0 mi SSW 8.1 mph - N/A   Clear
9:53 PM 55.0 °F 48.9 °F 80% 29.44 in 10.0 mi SW 8.1 mph - N/A   Clear
10:53 PM 55.0 °F 48.9 °F 80% 29.43 in 10.0 mi WSW 8.1 mph - N/A   Clear
11:53 PM 57.9 °F 48.9 °F 72% 29.43 in 10.0 mi SSW 8.1 mph - N/A   Clear